カタログに戻る

STARLINK-30993

運用中通信VLEO
NORAD 58489·PAYLOAD·🇺🇸 United States

打ち上げ Dec 3, 2023 から Cape Canaveral Space Force Station

Loading…

次のパス (今後24時間)

TLE

最新Source: CelesTrak SupGP

元期: Sep 14, 2026, 20:45 UTC

1 58489C 23186S   26257.86506944  .00037790  00000+0  13702-2 0  2575
2 58489  43.0007  75.3429 0001889 257.9163 238.3578 15.27523753    16

AllMySatでSTARLINK-30993をリアルタイム追跡

Download on the App Store